#timestamp,LO_Frequency,Hit,StdDev 
1540890015.4,286046995.3,N
1540890035.2,286046997.0,N
1540890055.0,286046999.2,N
1540890055.9,286046999.2,N
1540890075.8,286046996.6,N
1540890095.6,286046994.9,N
1540890115.5,286046995.4,N
1540890135.3,286046993.9,N
1540890155.1,286046994.7,N
1540890175.9,286046993.8,N
1540890195.7,286046995.1,N
1540890215.5,286046995.1,N
1540890235.4,286046993.4,N
1540890255.2,286046993.5,N
1540890275.0,286046996.0,N
1540890276.0,286046996.0,N
1540890295.8,286046991.7,N
1540890315.6,286046992.1,N
1540890335.5,286046992.0,N
1540890355.3,286046992.4,N
1540890375.1,286046992.7,N
1540890395.9,286046991.0,N
1540890415.7,286046991.0,N
1540890435.5,286046991.8,N
1540890455.4,286046991.7,N
1540890475.2,286046993.1,N
1540890495.1,286046991.4,Y
1540890496.0,286046991.4,P
1540890515.8,286046993.7,P
1540890535.6,286046995.7,P
1540890555.5,286046995.6,N
1540890575.3,286046993.4,Y
1540890595.2,286047001.1,P
1540890615.9,286046998.9,N
1540890635.7,286046996.5,N
1540890655.6,286046999.2,N
1540890675.4,286047001.2,N
1540890695.3,286046998.7,N
1540890715.1,286046996.8,N
1540890716.0,286046996.8,N
1540890735.8,286046998.6,N
1540890755.7,286046998.4,N
1540890775.5,286047000.8,N
1540890795.4,286046998.2,N
1540890815.2,286046998.1,N
1540890835.0,286046998.7,N
1540890835.9,286046998.7,N
1540890855.8,286046999.7,N
1540890875.6,286047000.9,N
1540890895.4,286047001.2,N
1540890915.3,286046995.0,N
1540890935.1,286046998.0,N
1540890955.9,286046996.1,N
1540890975.7,286046994.5,N
1540890995.5,286046994.8,N
1540891015.4,286046996.4,N
1540891035.2,286046993.5,Y
1540891055.1,286046997.8,P
1540891056.0,286046997.8,P
1540891075.8,286046995.4,P
1540891095.6,286046997.7,N
1540891115.5,286046995.8,Y
1540891135.3,286046996.5,P
1540891155.2,286047000.5,N
1540891175.9,286046998.3,N
1540891195.7,286046999.2,N
1540891215.6,286046997.6,N
1540891235.4,286046997.9,N
1540891255.2,286046997.4,N
1540891275.1,286046997.9,N
1540891276.0,286046997.9,N
1540891295.8,286046995.5,Y
1540891315.7,286046997.1,P
1540891335.5,286046995.7,P
1540891355.3,286046994.3,P
1540891375.2,286046992.1,Y
1540891395.0,286046997.9,P
1540891395.9,286046997.9,N
1540891415.8,286046999.2,N
1540891435.6,286046998.1,N
1540891455.4,286046998.2,N
1540891475.3,286046996.6,Y
1540891495.1,286047002.4,P
1540891515.9,286047004.4,N
1540891535.7,286047002.1,N
1540891555.5,286046998.3,N
1540891575.4,286047001.2,N
1540891595.2,286046996.9,N
1540891615.0,286046996.4,N
1540891615.9,286046996.4,N
1540891635.8,286046993.1,N
1540891655.6,286046990.3,N
1540891675.5,286046990.1,N
1540891695.3,286046988.8,N
1540891715.1,286046990.7,N
1540891735.9,286046991.5,N
1540891755.7,286046989.4,N
1540891775.5,286046989.4,N
1540891795.4,286046989.4,N
1540891815.2,286046991.0,N
1540891835.0,286046991.5,N
1540891836.0,286046991.5,N
1540891855.8,286046988.6,N
1540891875.6,286046991.0,N
1540891895.5,286046989.4,N
1540891915.3,286046987.1,N
1540891935.1,286046985.4,N
1540891955.9,286046986.6,N
1540891975.7,286046986.4,N
1540891995.6,286046986.3,N
1540892015.4,286046986.7,N
1540892035.2,286046986.3,N
1540892055.1,286046986.7,N
1540892056.0,286046986.7,N
1540892075.8,286046984.5,Y
1540892095.6,286046992.0,P
1540892115.5,286046992.8,P
1540892135.3,286046990.5,P
1540892155.2,286046991.2,Y
1540892175.0,286046997.7,P
1540892175.9,286046997.7,N
1540892195.7,286046999.5,N
1540892215.6,286046998.0,N
1540892235.4,286046997.4,N
1540892255.3,286046995.0,N
1540892275.1,286046995.4,N
1540892276.0,286046995.4,N
1540892295.8,286046995.6,N
1540892315.7,286046993.9,N
1540892335.5,286046993.6,Y
1540892385.4,286046996.7,E
1540892395.3,286046998.3,N
1540892415.1,286047002.6,P
1540892435.9,286047011.9,P
1540892455.7,286047000.2,N
1540892475.5,286046999.9,N
1540892495.4,286047002.8,N
1540892515.2,286047002.6,N
1540892535.1,286047002.1,N
1540892536.0,286047002.1,N
1540892555.8,286047002.1,N
1540892575.6,286047002.8,N
1540892595.5,286047000.8,N
1540892615.3,286046999.0,N
1540892635.2,286046999.5,N
1540892655.9,286046999.6,N
1540892675.7,286046997.7,N
1540892695.6,286046997.9,N
1540892715.4,286046995.8,N
1540892735.2,286046995.6,N
1540892755.1,286046993.3,N
1540892756.0,286046993.3,N
1540892775.8,286046993.4,N
1540892795.7,286046995.2,N
1540892815.5,286046995.3,N
1540892835.3,286046997.9,N
1540892855.2,286046995.1,N
1540892875.9,286046994.9,N
1540892895.7,286046996.4,N
1540892915.6,286046994.0,N
1540892935.4,286046990.6,N
1540892955.2,286046992.0,N
1540892975.1,286046993.5,N
1540892976.0,286046993.5,N
1540892995.8,286046994.4,N
1540893015.7,286046993.0,N
1540893035.5,286046992.0,N
1540893055.3,286046990.6,N
1540893075.2,286046991.5,N
1540893095.0,286046991.4,N
1540893095.9,286046991.4,N
1540893115.8,286046991.6,N
1540893135.6,286046991.2,Y
1540893155.4,286046995.8,P
1540893175.3,286046993.3,P
1540893195.1,286046996.0,P
1540893215.8,286046993.4,Y
1540893235.7,286046998.2,P
1540893255.5,286046999.5,N
1540893275.4,286046998.8,N
1540893295.2,286046997.4,N
1540893315.0,286046995.1,Y
1540893315.9,286046995.1,P
1540893335.8,286047000.5,N
1540893355.6,286047002.2,N
1540893375.4,286047002.6,N
1540893395.3,286047002.1,N
1540893415.1,286047002.1,N
1540893435.9,286047003.8,N
1540893455.7,286047005.6,N
1540893475.5,286047005.3,N
1540893495.4,286047005.8,N
1540893515.2,286047003.2,N
1540893535.0,286047003.2,N
1540893535.9,286047003.2,N
1540893555.8,286047001.6,N
1540893575.6,286047002.5,N
1540893595.5,286047004.0,N
